Погода в Засопке

Россия / Забайкальский край     52°00′41″N   113°24′49″E
темп.,
°C
ветер,
м/с
пор.,
м/с
влажн.,
%
обл.,
%
осадки,
мм/ч
давл.,
гПа
погр.,
м
7 мая, пт
пт700:00+3зсз2362100 0.0 1006112
03:00+1зюз2465100 0.0 1004154
06:000юз1260100 0.0 1002110
09:00+3зсз3349100 0.0 10021143
12:00+7с3437100 0.0 10011704
15:00+7св6860100 0.1 10021400
18:00+11ссв583856 0.3 10022064
21:00+6ссв35535 0.3 1006124
8 мая, сб
сб800:00+4ссз236368 0.0 100949
03:00+3ссз117199 0.1 101024
06:00+1з118075 0.0 101117
09:00+6сз24495 0.0 1010726
12:00+11сз462996 0.0 10082864
15:00+13ссз4620100 0.0 10053356
18:00+13ссз352391 0.0 10042703
21:00+8св233852 0.0 1006144
9 мая, вс
вс900:00+5юв115399 0.0 100818
03:00+4ссв116098 0.1 100817
06:00+2с11697 0.0 100921
09:00+7ссз23515 0.0 1009698
12:00+11сз2434100 0.1 10072447
15:00+12сз233577 0.1 10061688
18:00+11зсз544099 0.0 10061566
21:00+7ююв116485 0.4 100831
10 мая, пн
пн1000:00+5ююз117492 0.2 101016
03:00+4юв118195 0.3 101114
06:00+2юв118649 0.0 101212
09:00+8вюв25589 0.0 1010612
12:00+13юв5737100 0.0 10072331
15:00+14юв6833100 0.0 10052621
18:00+10ююв5852100 0.1 10061075
21:00+10в41146100 0.1 10051065
11 мая, вт
вт1100:00+10всв61236100 0.0 1004990
03:00+8в41044100 0.0 1004595
06:00+4юв1178100 0.0 100767
09:00+9ссв3646100 0.0 10061082
12:00+12всв4733100 0.0 10052292
15:00+16ссв4723100 0.0 10033195
18:00+15ссв4623100 0.0 10032846
21:00+10вюв113635 0.0 100411